GW0795 Weather Reports


time (UTC)temp
F
wind
direction
speed
knots
gust
knots
rain 1hr
in
rain 24hr
in
rain mn
in
humidity
%
barometer
mb
20260506031516 58 212 0.0 0.0 0.00 0.00 0.00 79 1015.4
20260506031008 58 212 0.0 0.0 0.00 0.00 0.00 78 1015.4
20260506030512 59 212 0.0 0.0 0.00 0.00 0.00 78 1015.4
20260506030020 59 212 0.0 2.6 0.00 0.00 0.00 78 1015.3
20260506025511 59 212 0.0 2.6 0.00 0.00 0.00 77 1015.3
20260506025010 59 173 0.0 1.7 0.00 0.00 0.00 77 1015.3
20260506024524 59 143 0.0 2.6 0.00 0.00 0.00 77 1015.2
20260506024015 60 156 0.0 3.5 0.00 0.00 0.00 76 1015.2
20260506023513 60 171 0.9 3.5 0.00 0.00 0.00 75 1015.2
20260506023045 60 142 0.0 1.7 0.00 0.00 0.00 75 1015.4
20260506022506 60 185 0.0 1.7 0.00 0.00 0.00 75 1015.3
20260506022003 60 174 0.0 2.6 0.00 0.00 0.00 75 1015.3
20260506021521 61 174 0.9 1.7 0.00 0.00 0.00 74 1015.3
20260506021011 61 149 0.0 1.7 0.00 0.00 0.00 73 1015.3
20260506020508 61 130 0.9 1.7 0.00 0.00 0.00 72 1015.3
20260506020025 61 213 0.9 2.6 0.00 0.00 0.00 72 1015.3
20260506015501 61 188 0.0 2.6 0.00 0.00 0.00 72 1015.3
20260506015004 61 242 0.0 2.6 0.00 0.00 0.00 71 1015.3
20260506014504 61 156 0.9 6.1 0.00 0.00 0.00 71 1015.3
20260506014004 61 207 0.0 6.1 0.00 0.00 0.00 72 1015.3
20260506013504 61 200 0.9 4.3 0.00 0.00 0.00 71 1015.3
20260506013007 61 142 0.0 3.5 0.00 0.00 0.00 72 1015.3
20260506012503 61 178 0.0 3.5 0.00 0.00 0.00 72 1015.3
20260506012008 61 194 0.0 3.5 0.00 0.00 0.00 73 1015.3
20260506011514 61 165 0.9 3.5 0.00 0.00 0.00 71 1015.3
20260506011004 61 215 0.9 4.3 0.00 0.00 0.00 73 1015.5
20260506010504 61 157 2.6 4.3 0.00 0.00 0.00 72 1015.4
20260506010016 61 166 1.7 4.3 0.00 0.00 0.00 71 1015.4
20260506005500 62 166 0.0 2.6 0.00 0.00 0.00 71 1015.3
20260506005000 61 172 0.9 3.5 0.00 0.00 0.00 72 1015.4
20260506004505 61 130 0.9 3.5 0.00 0.00 0.00 72 1015.4
20260506004006 61 294 1.7 3.5 0.00 0.00 0.00 71 1015.5
20260506003507 62 277 1.7 2.6 0.00 0.00 0.00 71 1015.6
20260506003004 62 295 0.9 4.3 0.00 0.00 0.00 71 1015.6
20260506002503 62 308 0.0 4.3 0.00 0.00 0.00 72 1015.6
20260506002003 62 333 1.7 5.2 0.00 0.00 0.00 71 1015.6
20260506001509 61 302 0.9 6.1 0.00 0.00 0.00 72 1015.6
20260506001004 61 281 1.7 6.1 0.00 0.00 0.00 72 1015.6
20260506000507 61 230 1.7 3.5 0.00 0.00 0.00 72 1015.7
20260506000014 61 296 0.9 3.5 0.00 0.00 0.00 71 1015.8
20260505235508 61 281 1.7 6.1 0.00 0.00 0.00 71 1015.8
20260505235006 61 257 1.7 6.1 0.00 0.00 0.00 72 1015.8
20260505234519 61 285 1.7 5.2 0.00 0.00 0.00 72 1015.9
20260505234004 61 277 1.7 6.1 0.00 0.00 0.00 72 1015.9
20260505233508 61 335 2.6 5.2 0.00 0.00 0.00 71 1016.0
20260505233004 61 173 0.9 5.2 0.00 0.00 0.00 73 1016.1
20260505232504 61 344 1.7 5.2 0.00 0.00 0.00 72 1016.1
20260505232004 61 292 2.6 6.1 0.00 0.00 0.00 71 1016.0
20260505231512 62 240 2.6 6.1 0.00 0.00 0.00 70 1016.0
20260505231005 62 199 1.7 5.2 0.00 0.00 0.00 70 1016.0
20260505230504 61 350 0.0 2.6 0.00 0.00 0.00 70 1016.0
20260505230021 62 225 0.9 5.2 0.00 0.00 0.00 70 1016.1
20260505225509 61 278 0.9 5.2 0.00 0.00 0.00 71 1016.2
20260505225008 62 317 0.9 6.1 0.00 0.00 0.00 71 1016.3
20260505224518 61 271 0.9 6.1 0.00 0.00 0.00 72 1016.3
20260505224007 61 264 2.6 6.1 0.00 0.00 0.00 70 1016.3
20260505223510 61 61 0.9 6.1 0.00 0.00 0.00 71 1016.4
20260505223020 61 309 1.7 3.5 0.00 0.00 0.00 72 1016.4
20260505222507 62 317 1.7 6.1 0.00 0.00 0.00 70 1016.4
20260505222004 61 271 1.7 6.1 0.00 0.00 0.00 72 1016.6
20260505221504 61 286 0.9 3.5 0.00 0.00 0.00 73 1016.6
20260505221003 61 273 0.9 4.3 0.00 0.00 0.00 71 1016.6
20260505220503 60 271 1.7 5.2 0.00 0.00 0.00 73 1016.7
20260505220009 60 312 1.7 5.2 0.00 0.00 0.00 72 1016.8
20260505215508 60 286 2.6 5.2 0.00 0.00 0.00 72 1016.8
20260505215004 60 194 1.7 4.3 0.00 0.00 0.00 73 1016.8
20260505214517 60 220 1.7 5.2 0.00 0.00 0.00 73 1016.7
20260505214011 60 272 1.7 5.2 0.00 0.00 0.00 73 1016.7
20260505213504 60 217 1.7 3.5 0.00 0.00 0.00 74 1016.7
20260505213028 61 255 0.9 2.6 0.00 0.00 0.00 72 1016.8
20260505212510 61 53 0.9 3.5 0.00 0.00 0.00 73 1016.8
20260505212011 60 271 0.9 3.5 0.00 0.00 0.00 73 1016.8
20260505211524 60 314 0.9 5.2 0.00 0.00 0.00 73 1016.7
20260505211003 60 286 1.7 5.2 0.00 0.00 0.00 73 1016.8
20260505210503 60 281 0.9 5.2 0.00 0.00 0.00 74 1016.9
20260505210012 60 298 1.7 5.2 0.00 0.00 0.00 73 1016.9
20260505205506 61 316 0.9 1.7 0.00 0.00 0.00 73 1017.0
20260505205004 60 186 0.9 1.7 0.00 0.00 0.00 75 1017.0
20260505204514 60 163 0.9 3.5 0.00 0.00 0.00 74 1017.0
20260505204008 59 225 0.9 3.5 0.00 0.00 0.00 74 1017.0
20260505203510 59 262 0.0 3.5 0.00 0.00 0.00 75 1017.0
20260505203024 59 305 0.9 2.6 0.00 0.00 0.00 75 1017.0
20260505202507 59 287 0.9 2.6 0.00 0.00 0.00 76 1017.0
20260505202009 59 257 0.9 1.7 0.00 0.00 0.00 75 1017.0
20260505201530 59 337 0.0 5.2 0.00 0.00 0.00 76 1016.9
20260505201011 58 297 0.0 5.2 0.00 0.00 0.00 77 1016.8
20260505200512 58 210 0.9 1.7 0.00 0.00 0.00 76 1016.9
20260505200026 59 324 0.9 2.6 0.00 0.00 0.00 76 1016.9
20260505195504 58 272 0.0 2.6 0.00 0.00 0.00 77 1016.9
20260505195005 58 302 0.9 3.5 0.00 0.00 0.00 77 1017.0
20260505194509 58 273 1.7 3.5 0.00 0.00 0.00 77 1016.9
20260505194010 58 250 1.7 3.5 0.00 0.00 0.00 77 1016.8
20260505193506 58 71 0.0 3.5 0.00 0.00 0.00 77 1016.8
20260505193015 58 276 1.7 4.3 0.00 0.00 0.00 76 1016.8
20260505192512 59 200 0.0 4.3 0.00 0.00 0.00 78 1016.8
20260505192007 58 225 0.0 2.6 0.00 0.00 0.00 79 1016.8
20260505191519 57 180 0.9 2.6 0.00 0.00 0.00 79 1016.8
20260505191008 57 223 0.9 1.7 0.00 0.00 0.00 79 1016.8
20260505190510 57 180 0.9 6.1 0.00 0.00 0.00 79 1016.8
20260505190025 57 195 1.7 6.1 0.00 0.00 0.00 79 1016.8
20260505185514 57 200 1.7 3.5 0.00 0.00 0.00 79 1016.7
20260505185010 57 186 0.9 3.5 0.00 0.00 0.00 81 1016.7
20260505184534 56 178 0.9 5.2 0.00 0.00 0.00 80 1016.7
20260505184007 56 159 0.9 5.2 0.00 0.00 0.00 81 1016.7
20260505183504 56 193 2.6 5.2 0.00 0.00 0.00 80 1016.7
20260505183019 56 200 0.9 3.5 0.00 0.00 0.00 80 1016.8
20260505182507 56 188 0.9 4.3 0.00 0.00 0.00 81 1016.7
20260505182012 56 140 1.7 4.3 0.00 0.00 0.00 80 1016.6
20260505181520 56 184 1.7 4.3 0.00 0.00 0.00 80 1016.6
20260505181009 56 186 1.7 4.3 0.00 0.00 0.00 81 1016.7
20260505180511 56 194 0.0 2.6 0.00 0.00 0.00 80 1016.7
20260505180024 56 199 0.0 1.7 0.00 0.00 0.00 81 1016.6
20260505175509 56 317 0.0 1.7 0.00 0.00 0.00 81 1016.6
20260505175007 56 286 0.9 2.6 0.00 0.00 0.00 81 1016.6
20260505174535 56 329 0.9 2.6 0.00 0.00 0.00 82 1016.6
20260505174010 55 108 0.0 1.7 0.00 0.00 0.00 82 1016.6
20260505173509 55 286 0.9 1.7 0.00 0.00 0.00 82 1016.6
20260505173029 55 296 0.0 1.7 0.00 0.00 0.00 82 1016.6
20260505172504 55 186 0.0 1.7 0.00 0.00 0.00 82 1016.5
20260505172010 56 188 0.0 1.7 0.00 0.00 0.00 83 1016.5
20260505171515 55 186 0.0 1.7 0.00 0.00 0.00 82 1016.5
20260505171007 55 188 0.0 1.7 0.00 0.00 0.00 82 1016.5
20260505170508 55 289 0.9 1.7 0.00 0.00 0.00 82 1016.4
20260505170022 55 197 0.0 2.6 0.00 0.00 0.00 82 1016.4
20260505165503 55 279 0.0 2.6 0.00 0.00 0.00 83 1016.4
20260505165004 55 253 0.0 1.7 0.00 0.00 0.00 82 1016.3
20260505164503 55 254 0.0 1.7 0.00 0.00 0.00 82 1016.3
20260505164003 55 184 0.0 0.9 0.00 0.00 0.00 83 1016.3
20260505163504 55 210 0.0 0.9 0.00 0.00 0.00 82 1016.3
20260505163004 55 131 0.0 0.0 0.00 0.00 0.00 83 1016.3
20260505162504 55 131 0.0 1.7 0.00 0.00 0.00 83 1016.3
20260505162004 55 260 0.0 1.7 0.00 0.00 0.00 83 1016.2
20260505161505 55 221 0.0 1.7 0.00 0.00 0.00 83 1016.2
20260505161005 55 215 0.0 1.7 0.00 0.00 0.00 83 1016.1
20260505160504 55 352 0.0 1.7 0.00 0.00 0.00 83 1016.1
20260505153006 54 190 0.0 2.6 0.00 0.00 0.00 84 1016.0
20260505152506 54 209 0.0 1.7 0.00 0.00 0.00 84 1016.0
20260505152005 54 212 0.0 1.7 0.00 0.00 0.00 84 1016.0
20260505151506 54 232 0.0 1.7 0.00 0.00 0.00 84 1016.0
20260505151003 54 234 0.9 1.7 0.00 0.00 0.00 84 1015.9
20260505150504 54 150 0.0 0.0 0.00 0.00 0.00 84 1015.8
20260505140507 54 163 0.0 1.7 0.00 0.00 0.00 85 1015.3
20260505125008 53 171 0.0 1.7 0.00 0.00 0.00 85 1014.5
20260505124514 54 212 0.0 1.7 0.00 0.00 0.00 85 1014.5
20260505124007 54 212 0.0 4.3 0.00 0.00 0.00 85 1014.5
20260505123507 53 212 0.0 4.3 0.00 0.00 0.00 85 1014.4
20260505123013 53 180 0.9 2.6 0.00 0.00 0.00 85 1014.5
20260505122504 54 192 0.9 2.6 0.00 0.00 0.00 85 1014.4
20260505122004 53 233 0.0 1.7 0.00 0.00 0.00 86 1014.4
20260505121517 53 204 0.0 0.9 0.00 0.00 0.00 86 1014.3
20260505121003 53 203 0.0 2.6 0.00 0.00 0.00 86 1014.3
20260505120508 53 204 0.9 2.6 0.00 0.00 0.00 86 1014.3
20260505120013 53 205 0.9 2.6 0.00 0.00 0.00 85 1014.3
20260505115504 53 207 0.0 2.6 0.00 0.00 0.00 85 1014.2
20260505115009 53 207 0.0 5.2 0.00 0.00 0.00 85 1014.3
20260505114519 53 186 2.6 4.3 0.00 0.00 0.00 85 1014.2
20260505114007 53 156 0.0 3.5 0.00 0.00 0.00 85 1014.3
20260505113509 53 202 0.0 3.5 0.00 0.00 0.00 85 1014.3
20260505113020 53 184 0.9 2.6 0.00 0.00 0.00 85 1014.3
20260505112507 53 245 0.0 5.2 0.00 0.00 0.00 86 1014.2
20260505112007 53 218 2.6 5.2 0.00 0.00 0.00 85 1014.2
20260505111518 53 192 0.9 2.6 0.00 0.00 0.00 85 1014.2
20260505111006 53 200 0.9 3.5 0.00 0.00 0.00 85 1014.2
20260505110507 53 224 0.9 3.5 0.00 0.00 0.00 85 1014.2
20260505102006 53 211 0.0 7.0 0.00 0.00 0.00 86 1013.9
20260505101519 53 213 2.6 7.0 0.00 0.00 0.00 86 1013.9
20260505101008 53 223 0.9 7.0 0.00 0.00 0.00 86 1013.8
20260505100507 53 222 0.9 7.0 0.00 0.00 0.00 86 1013.8
20260505100021 53 184 0.9 4.3 0.00 0.00 0.00 86 1013.8
20260505095507 53 213 0.9 6.1 0.00 0.00 0.00 86 1013.8
20260505095007 53 206 1.7 6.1 0.00 0.00 0.00 86 1013.8
20260505094520 53 186 0.9 7.8 0.00 0.00 0.00 86 1013.8
20260505094008 53 204 0.9 7.8 0.00 0.00 0.00 86 1013.8
20260505093507 53 186 1.7 7.8 0.00 0.00 0.00 87 1013.7
20260505093026 53 221 2.6 5.2 0.00 0.00 0.00 87 1013.7
20260505092507 53 246 0.9 5.2 0.00 0.00 0.00 87 1013.7
20260505092008 53 244 1.7 6.1 0.00 0.00 0.00 87 1013.7
20260505091503 53 219 0.0 6.1 0.00 0.00 0.00 87 1013.7
20260505091004 53 227 1.7 3.5 0.00 0.00 0.00 87 1013.6
20260505090504 53 222 0.0 3.5 0.00 0.00 0.00 87 1013.6
20260505090004 53 192 0.9 6.1 0.00 0.00 0.00 87 1013.5
20260505085504 53 194 1.7 6.1 0.00 0.00 0.00 87 1013.5
20260505085003 53 207 1.7 3.5 0.00 0.00 0.00 87 1013.5
20260505084508 53 181 0.0 4.3 0.00 0.00 0.00 87 1013.5
20260505084008 53 216 1.7 4.3 0.00 0.00 0.00 87 1013.4
20260505083507 53 180 0.0 3.5 0.00 0.00 0.00 87 1013.4
20260505083006 53 169 0.9 5.2 0.00 0.00 0.00 87 1013.4
20260505082500 53 197 0.0 5.2 0.00 0.00 0.00 88 1013.4
20260505082003 53 200 0.0 1.7 0.00 0.00 0.00 88 1013.4
20260505081505 53 181 0.0 1.7 0.00 0.00 0.00 88 1013.4
20260505081007 53 180 0.0 1.7 0.00 0.00 0.00 88 1013.3
20260505080502 53 191 0.0 2.6 0.00 0.00 0.00 88 1013.3
20260505080004 53 213 0.0 2.6 0.00 0.00 0.00 88 1013.3
20260505075502 53 207 0.0 1.7 0.00 0.00 0.00 88 1013.3
20260505075003 53 213 0.0 1.7 0.00 0.00 0.00 87 1013.2
20260505074508 53 213 0.0 2.6 0.00 0.00 0.00 87 1013.2
20260505074003 53 218 0.0 2.6 0.00 0.00 0.00 87 1013.1
20260505073504 53 161 0.0 0.9 0.00 0.00 0.00 87 1013.1
20260505073012 53 190 0.0 1.7 0.00 0.00 0.00 87 1013.0
20260505072507 53 194 0.9 1.7 0.00 0.00 0.00 87 1012.9
20260505072006 53 210 0.0 1.7 0.00 0.00 0.00 86 1012.9
20260505071503 53 198 0.9 3.5 0.00 0.00 0.00 86 1012.8
20260505071003 53 202 0.9 3.5 0.00 0.00 0.00 86 1012.8
20260505070503 53 221 0.0 1.7 0.00 0.00 0.00 86 1012.7
20260505070006 53 221 0.0 1.7 0.00 0.00 0.00 86 1012.7
20260505065502 53 221 0.0 2.6 0.00 0.00 0.00 86 1012.7
20260505065005 53 207 0.9 3.5 0.00 0.00 0.00 86 1012.6
20260505064509 53 198 0.0 3.5 0.00 0.00 0.00 86 1012.6
20260505064002 54 215 0.0 3.5 0.00 0.00 0.00 86 1012.6
20260505063504 54 205 0.9 4.3 0.00 0.00 0.00 85 1012.6
20260505063007 54 198 0.9 4.3 0.00 0.00 0.00 85 1012.5
20260505062505 54 184 0.9 4.3 0.00 0.00 0.00 85 1012.5
20260505062006 54 192 0.0 1.7 0.00 0.00 0.00 85 1012.4
20260505061515 54 186 0.0 4.3 0.00 0.00 0.00 85 1012.3
20260505061006 54 247 0.0 4.3 0.00 0.00 0.00 85 1012.2
20260505060507 54 193 0.9 3.5 0.00 0.00 0.00 85 1012.2
20260505060011 54 212 1.7 2.6 0.00 0.00 0.00 85 1012.2
20260505055503 54 195 0.9 1.7 0.00 0.00 0.00 84 1012.2
20260505055003 54 202 0.0 2.6 0.00 0.00 0.00 84 1012.2
20260505054503 54 207 0.0 4.3 0.00 0.00 0.00 84 1012.1
20260505054004 55 225 0.9 7.0 0.00 0.00 0.00 83 1012.0
20260505053503 55 209 3.5 7.0 0.00 0.00 0.00 83 1012.1
20260505053008 55 167 1.7 6.1 0.00 0.00 0.00 83 1012.0
20260505052503 55 211 1.7 6.1 0.00 0.00 0.00 83 1012.0
20260505052003 55 191 1.7 4.3 0.00 0.00 0.00 83 1012.0
20260505051514 55 198 1.7 4.3 0.00 0.00 0.00 82 1011.9
20260505051007 55 216 1.7 4.3 0.00 0.00 0.00 82 1012.0
20260505050510 55 208 0.0 4.3 0.00 0.00 0.00 82 1011.9
20260505041508 59 225 0.0 5.2 0.00 0.00 0.00 74 1011.0
20260505041005 60 180 0.9 3.5 0.00 0.00 0.00 74 1011.0
20260505040506 60 203 0.9 3.5 0.00 0.00 0.00 73 1011.0
20260505040014 60 220 0.0 1.7 0.00 0.00 0.00 73 1010.8
20260505035508 61 207 0.0 1.7 0.00 0.00 0.00 72 1010.7
20260505035008 61 203 0.9 1.7 0.00 0.00 0.00 72 1010.7
20260505034518 62 200 0.9 1.7 0.00 0.00 0.00 71 1010.6
20260505034010 62 209 0.0 1.7 0.00 0.00 0.00 70 1010.6
20260505033508 62 211 0.0 1.7 0.00 0.00 0.00 71 1010.4
20260505033013 63 183 0.0 1.7 0.00 0.00 0.00 70 1010.2
20260505032502 63 173 0.0 1.7 0.00 0.00 0.00 69 1010.2
20260505032002 64 158 0.0 1.7 0.00 0.00 0.00 68 1010.1